CAPE
910 933 885 834 774 654 552 598 656 706 666 583 406 233 150 150 129 87 71 131 94 73 42 54 0 0 0 0 0 0 0 0
871 974 875 844 635 485 395 440 466 527 512 358 148 92 126 180 1 112 163 142 154 68 16 0 0 0 0 0 0 0 0 0
686 780 658 490 434 381 327 407 367 373 362 169 56 169 158 102 36 148 7 0 11 0 0 0 0 0 0 0 0 0 0 0
522 395 271 165 97 335 344 302 306 380 351 363 237 252 221 194 14 0 0 0 0 0 0 0 0 0 0 0 0 0 0 0
81 97 55 36 64 193 117 230 279 289 328 318 311 220 275 116 0 0 0 0 0 0 0 0 0 0 0 0 0 0 0 0
0 0 0 0 2 38 80 229 290 376 412 395 355 169 16 0 0 0 0 0 0 0 0 0 0 0 0 0 0 0 0 0
0 0 0 0 1 34 84 241 333 372 371 191 64 0 0 0 0 0 0 0 0 0 0 0 0 0 0 0 0 0 0 0
100 5 2 7 41 59 105 194 260 375 413 229 7 0 0 0 0 0 0 0 0 0 0 0 0 0 0 0 0 0 0 0
196 166 6 18 51 67 60 66 156 198 299 153 29 0 0 3 0 6 2 1 5 1 0 0 0 0 0 0 0 0 0 0
200 225 86 77 50 35 8 5 9 84 129 71 13 1 13 9 18 13 2 12 8 0 0 0 0 0 0 0 0 0 0 0
169 187 176 92 83 28 8 32 43 29 31 27 12 37 7 10 4 0 2 0 0 0 0 0 0 0 0 0 0 0 0 0
154 184 192 17 13 55 65 68 68 42 68 50 37 0 0 0 0 0 0 0 0 0 0 0 0 0 0 0 0 0 0 0
163 123 76 18 72 81 14 15 40 39 15 0 0 0 0 0 0 0 0 0 0 0 0 0 0 0 0 0 0 0 0 0
243 134 49 20 12 0 0 0 0 0 0 0 0 0 0 0 0 0 0 0 0 0 0 0 0 0 0 0 0 0 0 0
62 49 39 0 0 0 2 0 0 0 0 0 0 0 0 0 0 0 0 0 0 0 0 0 0 0 9 1 0 0 0 0
10 36 0 0 0 0 0 0 0 0 0 0 0 1 0 0 0 0 0 0 0 0 0 0 0 0 0 2 0 0 0 0
0 0 0 0 0 0 0 0 0 0 0 0 0 0 0 0 0 0 0 0 0 0 0 0 0 0 0 0 0 0 0 0
0 0 0 0 0 0 0 0 0 0 0 0 0 0 0 0 0 0 0 0 0 0 1 0 3 0 0 0 0 0 0 0
0 0 0 0 0 0 0 0 0 0 0 0 0 0 0 0 0 0 0 5 5 4 4 20 27 2 0 0 0 0 16 0
0 0 0 0 0 0 0 0 0 0 0 0 0 0 0 0 0 0 8 9 3 11 20 37 50 0 0 0 0 0 0 2
CIN
-0 -0 -2 -9 -17 -31 -64 -65 -46 -30 -36 -49 -94 -131 -141 -132 -126 -124 -114 -79 -84 -85 -102 -80 -0 -0 -0 -0 -0 -0 -0 -0
-0 -3 -0 -0 -14 -72 -116 -112 -97 -89 -87 -125 -174 -179 -142 -122 -8 -115 -86 -93 -93 -112 -104 -0 -0 -0 -0 -0 -0 -0 -0 -0
-33 -25 -32 -73 -89 -99 -128 -105 -114 -114 -115 -173 -230 -110 -109 -105 -178 -104 -20 -0 -105 -0 -0 -0 -0 -0 -0 -0 -0 -0 -0 -0
-93 -109 -153 -179 -179 -108 -100 -109 -101 -99 -98 -88 -93 -91 -83 -70 -130 -0 -0 -0 -0 -0 -0 -0 -0 -0 -0 -0 -0 -0 -0 -0
-246 -222 -220 -230 -173 -132 -148 -126 -116 -115 -106 -89 -79 -86 -57 -66 -0 -0 -0 -0 -0 -0 -0 -0 -0 -0 -0 -0 -0 -0 -0 -0
-0 -0 -0 -0 -33 -160 -161 -111 -98 -75 -69 -71 -62 -75 -101 -0 -0 -0 -0 -0 -0 -0 -0 -0 -0 -0 -0 -0 -0 -0 -0 -0
-0 -0 -0 -0 -10 -143 -124 -89 -72 -64 -50 -45 -69 -0 -0 -0 -0 -0 -0 -0 -0 -0 -0 -0 -0 -0 -0 -0 -0 -0 -0 -0
-10 -22 -22 -35 -24 -16 -29 -47 -41 -14 -25 -19 -75 -0 -0 -0 -0 -0 -0 -0 -0 -0 -0 -0 -0 -0 -0 -0 -0 -0 -0 -0
-10 -9 -9 -41 -21 -13 -45 -48 -41 -30 -30 -33 -58 -0 -0 -9 -0 -2 -4 -3 -3 -2 -0 -0 -0 -0 -0 -0 -0 -0 -0 -0
-9 -14 -76 -32 -26 -4 -139 -106 -8 -44 -46 -25 -26 -1 -1 -8 -4 -0 -5 -1 -4 -0 -0 -0 -0 -0 -0 -0 -0 -0 -0 -0
-31 -15 -9 -9 -25 -31 -13 -27 -13 -19 -12 -12 -8 -1 -11 -9 -2 -0 -0 -0 -0 -0 -0 -0 -0 -0 -0 -0 -0 -0 -0 -0
-77 -34 -12 -115 -63 -70 -11 -5 -2 -4 -0 -0 -1 -5 -0 -0 -0 -0 -0 -0 -0 -0 -0 -0 -0 -0 -0 -0 -0 -0 -0 -0
-59 -25 -6 -59 -35 -9 -21 -22 -7 -0 -3 -0 -0 -0 -0 -0 -0 -0 -0 -0 -0 -0 -0 -0 -0 -0 -0 -0 -0 -0 -0 -0
-37 -42 -50 -40 -35 -0 -0 -0 -0 -0 -0 -0 -0 -0 -0 -0 -0 -0 -0 -0 -0 -0 -0 -0 -0 -0 -0 -0 -0 -0 -0 -0
-77 -63 -40 -0 -0 -0 -21 -0 -0 -0 -0 -0 -0 -0 -0 -0 -0 -0 -0 -0 -0 -0 -0 -0 -0 -0 -0 -0 -0 -0 -0 -0
-77 -61 -0 -0 -0 -0 -0 -0 -0 -0 -0 -0 -0 -1 -0 -0 -0 -0 -0 -0 -0 -0 -0 -0 -0 -0 -0 -0 -0 -0 -0 -0
-0 -0 -0 -0 -0 -0 -0 -0 -0 -0 -0 -0 -0 -0 -0 -0 -0 -0 -0 -0 -0 -0 -0 -0 -0 -0 -0 -0 -0 -0 -0 -0
-0 -0 -0 -0 -0 -0 -0 -0 -0 -0 -0 -0 -0 -0 -0 -0 -0 -0 -0 -0 -0 -0 -37 -0 -1 -0 -0 -0 -0 -0 -0 -0
-0 -0 -0 -0 -0 -0 -0 -0 -0 -0 -0 -0 -0 -0 -0 -0 -0 -0 -0 -1 -1 -29 -15 -2 -0 -0 -0 -0 -0 -0 -0 -0
-0 -0 -0 -0 -0 -0 -0 -0 -0 -0 -0 -0 -0 -0 -0 -0 -0 -0 -1 -40 -21 -16 -8 -4 -4 -0 -0 -0 -0 -0 -0 -5
Wind_Speed
15 17 16 11 10 11 12 16 19 21 24 27 30 31 31 32 33 nan nan 32 nan nan nan nan nan nan nan nan nan nan nan nan
13 12 9 9 11 11 14 19 23 25 28 30 31 nan 31 32 nan 30 31 31 30 nan nan nan nan nan nan nan nan nan nan nan
6 6 5 7 11 14 18 22 23 26 26 28 nan 29 29 30 nan 29 nan nan nan nan nan nan nan nan nan nan nan nan nan nan
2 4 7 9 nan 17 20 21 22 23 24 26 27 27 28 30 nan nan nan nan nan nan nan nan nan nan nan nan nan nan nan nan
nan nan nan nan nan 16 20 22 23 23 23 25 27 25 29 34 nan nan nan nan nan nan nan nan nan nan nan nan nan nan nan nan
nan nan nan nan nan nan nan 26 26 25 26 28 26 29 nan nan nan nan nan nan nan nan nan nan nan nan nan nan nan nan nan nan
nan nan nan nan nan nan nan 27 28 28 27 29 nan nan nan nan nan nan nan nan nan nan nan nan nan nan nan nan nan nan nan nan
18 nan nan nan nan nan 25 27 26 29 28 23 nan nan nan nan nan nan nan nan nan nan nan nan nan nan nan nan nan nan nan nan
28 27 nan nan nan nan nan nan 33 21 22 31 nan nan nan nan nan nan nan nan nan nan nan nan nan nan nan nan nan nan nan nan
28 29 nan nan nan nan nan nan nan nan 33 nan nan nan nan nan nan nan nan nan nan nan nan nan nan nan nan nan nan nan nan nan
34 34 34 nan nan nan nan nan nan nan nan nan nan nan nan nan nan nan nan nan nan nan nan nan nan nan nan nan nan nan nan nan
34 31 34 nan nan nan nan nan nan nan nan nan nan nan nan nan nan nan nan nan nan nan nan nan nan nan nan nan nan nan nan nan
32 36 nan nan nan nan nan nan nan nan nan nan nan nan nan nan nan nan nan nan nan nan nan nan nan nan nan nan nan nan nan nan
34 38 nan nan nan nan nan nan nan nan nan nan nan nan nan nan nan nan nan nan nan nan nan nan nan nan nan nan nan nan nan nan
nan nan nan nan nan nan nan nan nan nan nan nan nan nan nan nan nan nan nan nan nan nan nan nan nan nan nan nan nan nan nan nan
nan nan nan nan nan nan nan nan nan nan nan nan nan nan nan nan nan nan nan nan nan nan nan nan nan nan nan nan nan nan nan nan
nan nan nan nan nan nan nan nan nan nan nan nan nan nan nan nan nan nan nan nan nan nan nan nan nan nan nan nan nan nan nan nan
nan nan nan nan nan nan nan nan nan nan nan nan nan nan nan nan nan nan nan nan nan nan nan nan nan nan nan nan nan nan nan nan
nan nan nan nan nan nan nan nan nan nan nan nan nan nan nan nan nan nan nan nan nan nan nan nan nan nan nan nan nan nan nan nan
nan nan nan nan nan nan nan nan nan nan nan nan nan nan nan nan nan nan nan nan nan nan nan nan nan nan nan nan nan nan nan nan
Wind_Direction
290 289 276 264 270 273 281 284 285 287 285 286 287 288 288 291 291 nan nan 288 nan nan nan nan nan nan nan nan nan nan nan nan
276 267 247 264 280 286 296 293 293 294 295 294 291 nan 290 287 nan 287 285 283 289 nan nan nan nan nan nan nan nan nan nan nan
263 247 279 291 303 304 297 294 297 292 292 288 nan 289 292 292 nan 291 nan nan nan nan nan nan nan nan nan nan nan nan nan nan
268 286 288 296 nan 290 287 284 283 286 288 293 291 290 290 292 nan nan nan nan nan nan nan nan nan nan nan nan nan nan nan nan
nan nan nan nan nan 277 279 283 286 287 292 287 280 285 295 297 nan nan nan nan nan nan nan nan nan nan nan nan nan nan nan nan
nan nan nan nan nan nan nan 287 285 281 280 275 274 285 nan nan nan nan nan nan nan nan nan nan nan nan nan nan nan nan nan nan
nan nan nan nan nan nan nan 278 278 269 267 268 nan nan nan nan nan nan nan nan nan nan nan nan nan nan nan nan nan nan nan nan
292 nan nan nan nan nan 277 268 266 263 273 273 nan nan nan nan nan nan nan nan nan nan nan nan nan nan nan nan nan nan nan nan
291 288 nan nan nan nan nan nan 254 287 313 310 nan nan nan nan nan nan nan nan nan nan nan nan nan nan nan nan nan nan nan nan
284 283 nan nan nan nan nan nan nan nan 318 nan nan nan nan nan nan nan nan nan nan nan nan nan nan nan nan nan nan nan nan nan
280 277 273 nan nan nan nan nan nan nan nan nan nan nan nan nan nan nan nan nan nan nan nan nan nan nan nan nan nan nan nan nan
285 286 275 nan nan nan nan nan nan nan nan nan nan nan nan nan nan nan nan nan nan nan nan nan nan nan nan nan nan nan nan nan
293 283 nan nan nan nan nan nan nan nan nan nan nan nan nan nan nan nan nan nan nan nan nan nan nan nan nan nan nan nan nan nan
296 299 nan nan nan nan nan nan nan nan nan nan nan nan nan nan nan nan nan nan nan nan nan nan nan nan nan nan nan nan nan nan
nan nan nan nan nan nan nan nan nan nan nan nan nan nan nan nan nan nan nan nan nan nan nan nan nan nan nan nan nan nan nan nan
nan nan nan nan nan nan nan nan nan nan nan nan nan nan nan nan nan nan nan nan nan nan nan nan nan nan nan nan nan nan nan nan
nan nan nan nan nan nan nan nan nan nan nan nan nan nan nan nan nan nan nan nan nan nan nan nan nan nan nan nan nan nan nan nan
nan nan nan nan nan nan nan nan nan nan nan nan nan nan nan nan nan nan nan nan nan nan nan nan nan nan nan nan nan nan nan nan
nan nan nan nan nan nan nan nan nan nan nan nan nan nan nan nan nan nan nan nan nan nan nan nan nan nan nan nan nan nan nan nan
nan nan nan nan nan nan nan nan nan nan nan nan nan nan nan nan nan nan nan nan nan nan nan nan nan nan nan nan nan nan nan nan